Location: Unspecified
(43.4354°N, 0.0000°E)
Time: 10:20:33
(UTC+00:00)

Vanguard 2 Rocket - Pass Details

Date: 20 June 2019
Orbit: 553 x 3327 km, 32.9° (Epoch: 24 August)

Event Time Altitude Azimuth Distance (km) Brightness Sun altitude
Rises 22:25:22 0° 238° (WSW) 4,247 10.2 -19.6°
Reaches altitude 10° 22:27:52 10° 232° (SW) 3,569 9.8 -19.7°
Maximum altitude 22:37:03 47° 161° (SSE) 2,600 8.7 -20.4°
Drops below altitude 10° 22:52:21 10° 96° (E) 5,796 10.8 -21.3°
Sets 22:57:44 0° 92° (E) 7,082 11.3 -21.5°
